Weather History for Laredo, TX

Change the Weather History Date:

Sunday, November 10, 2013

  Actual Average Record
Temperature  
Mean Temperature 68 °F 68 °F  
Max Temperature 74 °F 78 °F 96 °F (1935)
Min Temperature 62 °F 57 °F 30 °F (1977)
Degree Days  
Heating Degree Days 0 2  
Month to date heating degree days 11 17  
Since 1 July heating degree days 11 29  
Cooling Degree Days 3 5  
Month to date cooling degree days 52 62  
Year to date cooling degree days 4409 4191  
Growing Degree Days 17 (Base 50)    
Moisture  
Dew Point 60 °F    
Average Humidity 74    
Maximum Humidity 84    
Minimum Humidity 66    
Precipitation  
Precipitation 0.00 in 0.05 in 1.14 in (1957)
Month to date precipitation 0.01 0.47  
Year to date precipitation 20.01 18.60  
Sea Level Pressure  
Sea Level Pressure 30.20 in    
Wind  
Wind Speed 4 mph (ENE)    
Max Wind Speed 13 mph    
Max Gust Speed 17 mph    
Visibility 10 miles    
Events      
T = Trace of Precipitation, MM = Missing Value Source: NWS Daily Summary

Daily Weather History Graph

Daily Weather History Graph

Search for Another Location

Airport:

Trip Planner

Search our weather history database for the weather conditions in past years. The results will help you decide how hot, cold, wet, or windy it might be!

Date:

Astronomy

Nov. 10, 2013 Rise Set
Actual Time 6:55 AM CST 5:48 PM CST
Civil Twilight 6:30 AM CST 6:12 PM CST
Nautical Twilight 6:02 AM CST 6:40 PM CST
Astronomical Twilight 5:34 AM CST 7:08 PM CST
Moon 1:20 PM CST (11/10) 12:12 AM CST (11/10)
Length of Visible Light 11h 42m
Length of Day
10h 53m
First Quarter, 56% of the Moon is Illuminated
Nov 10
First Quarter
Nov 17
Full
Nov 25
Last Quarter
Dec 2
New
Dec 9
First Quarter

Hourly Weather History & Observations

Time (CST) Temp. Dew Point Humidity Pressure Visibility Wind Dir Wind Speed Gust Speed Precip Events Conditions
12:56 AM 63.0 °F 55.9 °F 78% 30.14 in 10.0 mi Calm Calm - N/A   Mostly Cloudy
1:56 AM 61.9 °F 55.9 °F 81% 30.14 in 10.0 mi Calm Calm - N/A   Mostly Cloudy
2:56 AM 63.0 °F 55.9 °F 78% 30.14 in 10.0 mi Calm Calm - N/A   Mostly Cloudy
3:56 AM 63.9 °F 56.8 °F 78% 30.14 in 10.0 mi Calm Calm - N/A   Overcast
4:56 AM 64.9 °F 57.9 °F 78% 30.15 in 10.0 mi Calm Calm - N/A   Overcast
5:56 AM 65.8 °F 59.0 °F 79% 30.17 in 10.0 mi ENE 5.8 mph - N/A   Overcast
6:56 AM 64.9 °F 59.0 °F 81% 30.19 in 10.0 mi Calm Calm - N/A   Overcast
7:56 AM 65.8 °F 59.0 °F 79% 30.21 in 10.0 mi NE 6.9 mph - N/A   Overcast
8:56 AM 66.9 °F 59.9 °F 78% 30.23 in 10.0 mi Calm Calm - N/A   Overcast
9:56 AM 68.9 °F 61.0 °F 76% 30.25 in 10.0 mi NE 5.8 mph - N/A   Overcast
10:56 AM 70.0 °F 61.9 °F 75% 30.25 in 10.0 mi ENE 8.1 mph - N/A   Overcast
11:56 AM 72.0 °F 61.9 °F 70% 30.23 in 10.0 mi East 5.8 mph - N/A   Overcast
12:56 PM 72.9 °F 61.9 °F 68% 30.21 in 10.0 mi East 5.8 mph - N/A   Overcast
1:56 PM 73.9 °F 61.9 °F 66% 30.19 in 10.0 mi East 5.8 mph - N/A   Overcast
2:56 PM 73.9 °F 61.9 °F 66% 30.18 in 10.0 mi East 4.6 mph - N/A   Overcast
3:56 PM 73.9 °F 61.9 °F 66% 30.17 in 10.0 mi NE 3.5 mph - N/A   Overcast
4:56 PM 72.9 °F 61.9 °F 68% 30.17 in 10.0 mi NE 10.4 mph - N/A   Overcast
5:56 PM 70.9 °F 63.0 °F 76% 30.19 in 10.0 mi ENE 11.5 mph - N/A   Mostly Cloudy
6:56 PM 70.9 °F 61.9 °F 73% 30.20 in 10.0 mi ENE 8.1 mph - N/A   Overcast
7:56 PM 70.0 °F 61.9 °F 75% 30.22 in 10.0 mi East 5.8 mph - N/A   Overcast
8:56 PM 70.0 °F 61.0 °F 73% 30.23 in 10.0 mi Calm Calm - N/A   Overcast
9:56 PM 68.9 °F 61.0 °F 76% 30.24 in 10.0 mi East 5.8 mph - N/A   Overcast
10:56 PM 68.9 °F 59.9 °F 73% 30.24 in 10.0 mi East 5.8 mph - N/A   Overcast
11:56 PM 68.0 °F 59.0 °F 73% 30.23 in 10.0 mi Calm Calm - N/A   Overcast